Theta_e
280 281 281 280 279 279 279 279 279 279 281 280 277 278 280 280 275 274 280 280 279 281 284 286 286 287 287 288 288 289 289 289 289 290 289 288 287 288 287 288 288 288 287 287 286 286 287 287 287 288 288 288 289 289 289 289 290 290 290 290 289 289 289 289 289 288 288 288 288 288 287 287 287 286 286 284 284 283 283 283 284 284 283 283 283 283 283
278 279 280 280 279 279 279 279 279 280 280 280 280 279 280 280 278 280 280 280 280 282 284 285 287 289 289 289 289 289 289 288 289 288 287 287 287 287 287 287 288 288 287 287 286 286 286 286 287 287 287 287 287 288 288 288 288 289 289 289 289 288 288 288 288 288 288 287 287 287 286 286 286 285 283 283 282 282 282 283 283 283 283 283 283 283 283
274 277 279 279 278 278 276 278 279 279 279 279 280 280 280 281 279 280 280 279 279 284 286 287 288 289 289 288 287 288 288 288 287 287 286 286 287 287 287 288 288 288 287 286 286 286 286 286 286 286 286 287 287 287 287 287 287 288 288 288 288 288 288 289 288 287 286 286 286 285 285 285 284 283 283 282 282 282 282 282 282 282 282 282 283 283 283
273 276 275 276 276 275 275 274 275 276 277 276 278 277 280 279 277 279 279 277 278 283 287 288 288 287 287 286 287 287 287 287 287 286 286 287 287 287 287 287 287 287 287 286 285 285 286 286 286 286 286 286 286 286 286 286 287 287 287 287 286 287 288 288 287 286 285 285 285 284 284 283 283 282 282 282 282 282 281 282 282 282 282 282 283 283 283
272 274 271 272 273 274 272 272 275 276 277 278 279 280 281 281 281 278 276 277 283 286 287 285 286 287 286 287 287 287 287 287 287 286 286 286 287 287 287 287 287 287 287 287 286 286 286 286 286 286 286 286 285 286 285 286 286 286 286 286 286 286 287 287 286 286 285 285 284 284 283 283 283 282 282 282 281 281 281 281 281 281 281 282 282 282 282
271 270 271 271 272 269 272 281 283 283 279 278 276 277 278 280 281 280 282 283 286 287 286 285 285 286 287 287 288 288 286 285 286 286 287 287 287 287 287 288 287 288 288 287 287 287 287 287 287 286 287 286 286 287 286 286 286 286 286 286 286 286 286 286 286 285 285 284 284 283 283 283 282 281 281 281 281 281 281 281 281 281 281 281 281 281 281
271 271 273 273 269 272 277 276 278 279 281 282 280 280 281 281 281 282 282 283 284 285 286 287 287 288 288 288 286 286 287 287 286 286 286 287 287 287 287 287 288 288 288 287 287 286 287 287 287 286 286 287 287 286 286 285 286 285 285 285 286 286 285 285 286 285 284 284 283 283 283 282 282 281 281 281 281 281 281 281 281 281 281 281 281 281 281
272 269 271 266 271 277 279 281 283 282 281 281 279 278 280 281 281 281 281 282 284 285 285 286 287 287 286 285 286 287 288 289 288 287 288 289 288 287 288 288 288 288 288 288 287 287 288 287 287 286 286 286 286 285 286 285 285 285 285 285 285 286 284 284 285 285 284 284 283 283 282 282 281 281 281 281 280 281 281 282 282 282 282 282 281 281 281
271 271 271 273 279 277 280 280 282 280 279 277 278 277 282 284 283 282 281 282 283 284 285 286 286 285 284 283 285 290 290 290 289 288 289 289 288 288 288 288 288 289 289 289 288 288 288 287 287 286 286 286 285 285 284 284 285 285 285 284 285 285 285 284 284 284 284 284 283 282 282 282 281 280 280 281 281 282 281 281 281 281 281 281 281 281 281
274 270 269 271 271 268 276 282 279 279 279 281 281 280 279 284 284 285 283 283 284 284 285 285 284 283 281 282 286 290 288 288 289 288 288 288 287 286 287 288 287 288 288 288 289 288 288 287 287 287 286 285 285 284 283 284 284 284 284 284 284 285 285 285 284 284 284 284 283 282 282 281 281 281 281 281 281 282 281 281 280 281 281 281 281 281 281
270 269 267 268 268 273 280 279 278 278 278 279 279 279 277 287 286 285 284 284 285 285 284 283 282 281 281 283 288 293 289 288 287 288 289 288 288 289 288 288 288 287 287 287 287 287 288 286 287 287 286 285 284 283 283 283 283 283 284 284 284 285 285 286 285 285 284 284 284 283 281 282 282 281 281 281 282 282 282 281 281 281 281 280 280 280 280
271 270 268 269 274 274 280 280 279 279 278 278 280 275 278 287 284 285 285 284 285 285 284 283 282 283 282 285 289 290 289 288 287 287 288 288 288 288 287 287 288 288 287 286 285 286 286 287 287 287 286 285 284 283 283 283 283 283 284 284 285 286 286 286 286 285 285 284 283 282 281 282 282 282 282 281 281 281 281 281 281 281 280 280 279 279 279
272 272 270 272 274 280 282 281 280 279 277 280 276 273 284 287 285 284 284 285 285 284 282 283 282 285 289 291 289 284 284 285 287 286 286 286 287 287 287 287 286 286 286 286 286 286 286 287 287 287 286 285 284 284 283 283 282 283 284 285 285 285 286 286 285 284 284 284 283 283 282 282 282 282 282 281 281 281 281 281 281 280 280 280 279 278 278
270 271 269 270 273 280 282 283 282 281 280 275 275 285 286 287 287 284 285 286 284 283 282 284 286 289 289 288 286 285 286 285 286 287 287 285 284 284 285 285 285 286 286 286 286 286 286 286 286 287 285 284 284 284 283 283 283 284 285 285 285 285 285 285 285 285 284 284 284 283 283 282 281 281 281 282 281 281 281 280 279 279 279 279 278 278 278
271 270 268 268 267 279 283 282 281 282 278 281 287 287 285 283 285 284 283 284 284 283 283 284 286 287 287 286 286 286 285 284 285 286 287 286 287 286 285 285 285 286 286 285 285 285 286 286 285 286 285 284 284 284 284 284 285 285 285 286 285 285 284 284 284 284 284 283 282 282 282 282 282 281 281 281 281 281 280 280 279 278 278 278 277 277 277
269 268 266 268 277 281 283 283 277 280 283 288 289 287 287 287 285 285 284 283 284 284 285 285 284 284 284 285 285 285 286 286 286 285 284 284 285 285 287 288 286 285 286 286 286 285 285 285 285 285 285 284 284 284 284 286 286 286 285 285 285 285 285 284 282 282 282 283 283 282 282 282 282 282 281 281 281 280 280 279 279 278 278 277 277 277 276
276 273 275 280 283 283 284 284 286 285 286 287 288 287 288 287 284 283 285 287 284 284 285 285 285 284 284 284 286 285 287 287 286 284 285 285 286 286 286 286 286 285 287 286 286 285 285 284 285 285 285 284 283 283 285 286 285 285 285 285 285 284 284 284 283 283 283 283 283 282 282 282 281 281 281 281 280 280 280 279 278 278 278 277 277 277 276
281 283 284 283 283 282 282 285 286 286 286 287 288 286 286 285 287 284 285 286 286 284 284 284 283 283 285 285 285 285 285 285 286 286 285 284 284 283 283 285 285 285 286 286 285 285 284 284 284 284 284 285 283 284 286 286 286 285 285 284 284 284 284 284 283 284 283 283 283 283 282 282 282 282 281 280 280 279 279 278 278 278 278 277 277 277 276
279 276 283 282 282 284 283 284 285 286 286 286 286 286 286 288 288 285 284 285 285 285 283 283 285 285 285 284 285 286 286 286 285 286 285 285 285 285 284 284 284 284 285 285 284 284 284 284 284 284 284 284 285 286 285 286 286 285 284 284 283 283 284 284 284 283 283 282 282 282 282 282 282 282 282 281 280 280 279 279 278 278 278 278 277 277 277
279 281 283 284 286 285 286 285 284 284 285 285 285 286 287 287 287 286 286 286 285 285 283 284 284 285 286 285 285 285 286 286 286 286 286 287 286 285 285 284 284 285 285 285 285 284 284 285 284 284 284 284 285 285 285 285 285 285 283 283 283 283 283 283 283 283 282 280 281 281 282 281 281 281 281 281 281 280 280 279 279 279 279 278 278 278 278
282 284 285 285 284 284 284 285 286 286 287 287 286 286 285 285 285 286 286 286 285 285 285 285 284 284 285 285 285 285 286 286 286 286 287 287 287 286 284 283 283 285 285 285 285 285 285 286 284 283 283 284 284 284 285 285 284 283 283 282 283 283 283 283 282 283 283 282 282 281 281 281 281 282 281 281 281 281 282 282 281 280 280 280 280 280 280
278 279 282 285 280 281 285 285 286 286 287 288 288 288 287 286 286 286 286 287 288 287 286 286 285 284 285 286 286 285 285 285 286 286 287 287 286 285 285 284 283 283 284 285 285 285 286 287 285 284 283 284 284 284 284 284 284 283 282 282 282 282 282 282 282 282 282 282 282 282 281 281 281 281 280 283 282 281 281 282 283 283 282 281 281 281 280
279 284 286 288 287 287 288 289 288 289 289 288 286 286 287 287 288 288 287 287 287 287 286 286 286 285 285 286 286 285 285 285 286 287 287 286 286 286 286 283 282 282 283 284 284 285 286 286 285 284 283 284 284 284 284 284 283 283 282 282 282 282 282 282 282 281 281 281 281 281 281 281 281 280 280 281 283 283 283 283 282 283 283 283 283 283 281
287 289 288 288 287 285 288 289 289 288 289 288 287 288 288 288 288 288 288 288 287 287 288 287 286 286 286 286 286 286 286 286 286 286 286 287 286 287 287 285 284 282 282 282 283 284 286 286 285 285 284 284 284 283 283 283 283 283 282 282 282 282 282 282 281 281 281 281 281 280 281 281 280 280 280 279 279 282 283 283 283 283 283 283 283 283 283
286 289 289 290 289 288 289 290 290 289 288 287 287 287 288 288 288 289 288 287 287 287 287 288 287 286 286 286 286 286 286 286 287 286 286 286 286 286 286 285 284 283 283 283 284 284 285 285 285 285 284 285 284 283 283 283 282 282 282 281 282 282 282 282 281 281 281 281 280 280 279 279 279 279 279 279 278 278 280 282 282 282 283 283 283 284 284
290 290 290 290 290 289 287 288 287 287 287 286 286 288 288 288 289 288 287 287 287 288 287 287 287 288 286 285 286 286 286 286 287 286 286 286 286 285 285 284 285 285 285 285 284 284 284 284 284 284 284 285 285 284 283 282 282 281 282 282 282 283 282 282 281 281 281 280 280 280 280 280 279 279 279 279 279 279 278 278 279 280 282 282 283 283 283
290 290 289 288 287 288 289 287 287 289 288 286 287 288 290 290 287 287 288 288 288 288 288 288 288 288 287 286 285 286 286 286 286 286 286 286 286 286 287 286 286 286 285 285 284 283 282 283 283 283 283 284 285 284 283 282 281 281 281 282 282 282 280 280 282 281 281 281 281 280 280 280 279 279 279 279 279 279 279 278 277 277 277 279 281 282 282
290 290 289 285 285 287 288 290 290 290 290 288 287 288 289 290 288 286 286 286 286 286 286 285 285 285 285 286 285 285 285 284 284 285 286 286 287 287 287 287 287 286 285 284 284 284 282 282 282 282 283 284 284 284 283 282 281 281 281 281 282 283 283 281 282 282 281 281 281 280 280 280 280 280 279 279 279 279 279 279 278 278 278 279 279 280 281
289 289 289 289 290 291 291 291 290 288 289 290 289 289 288 287 286 285 285 286 287 288 287 287 285 285 285 286 286 285 285 286 285 285 286 287 287 288 288 287 286 285 285 284 284 284 283 282 282 281 282 284 284 283 283 282 281 281 281 282 282 282 283 282 282 282 282 281 281 281 280 280 280 280 279 279 279 279 279 279 278 278 279 279 278 278 279
289 289 289 289 290 290 289 288 289 289 288 288 287 286 286 286 286 286 286 286 286 286 286 287 286 285 285 285 285 285 285 285 286 287 288 288 288 288 287 286 285 284 283 283 283 283 282 282 282 282 283 284 283 282 282 282 282 282 282 282 282 282 283 283 282 282 281 281 281 280 280 280 280 280 279 279 279 278 278 278 278 278 278 278 277 278 277
287 288 288 288 288 288 288 288 288 288 288 288 288 287 286 285 285 286 287 287 286 286 286 286 285 285 285 284 285 286 286 286 286 287 287 287 287 287 287 285 284 284 285 284 284 283 283 282 283 283 284 284 283 282 282 282 282 282 282 282 282 282 282 282 282 282 282 281 281 280 280 280 280 279 279 278 278 278 278 278 278 278 278 278 278 277 278
285 285 286 286 287 287 286 287 287 287 287 287 287 286 287 286 285 285 286 286 286 286 286 286 285 285 286 286 286 285 285 285 285 285 285 285 286 286 286 286 285 284 286 286 286 285 284 283 283 284 284 284 283 281 282 282 282 282 282 280 282 283 282 281 282 282 282 281 281 280 280 279 279 279 279 278 278 278 278 278 278 278 278 278 277 278 278
284 283 283 284 285 285 285 286 286 286 286 286 286 287 287 287 287 286 286 287 286 286 286 286 286 287 287 286 286 285 285 285 284 284 284 284 285 285 286 286 286 285 285 286 286 286 285 284 284 285 284 284 283 282 282 282 282 283 283 283 283 283 280 281 282 282 281 282 281 280 280 280 280 279 279 279 279 279 278 278 278 278 278 278 278 279 279
285 286 286 287 286 286 285 285 286 286 287 287 287 287 287 286 286 286 286 286 286 286 286 286 287 287 286 286 286 285 285 284 284 284 284 284 285 285 286 286 286 285 285 286 286 286 286 286 286 285 284 284 283 282 282 282 283 283 283 284 283 283 283 282 282 282 282 281 281 281 280 280 280 280 279 279 279 279 278 278 278 278 278 278 278 279 278
271 274 277 280 282 283 285 286 286 286 286 286 286 286 286 286 286 286 286 286 286 286 287 287 286 286 286 286 285 285 284 284 285 285 286 286 286 286 286 286 285 284 284 284 285 285 286 286 286 285 284 284 284 283 282 282 282 283 283 284 283 283 283 283 282 282 282 282 282 281 281 280 280 277 279 280 279 279 278 278 278 278 278 278 278 278 278
269 271 273 274 274 274 275 278 280 281 283 284 285 286 286 286 285 285 285 285 287 287 287 286 286 286 285 285 285 285 285 285 285 285 285 286 286 287 286 285 285 284 284 284 285 285 285 285 282 282 285 284 284 283 282 282 282 283 283 284 283 283 283 283 282 282 282 282 282 282 282 280 279 280 280 280 279 279 279 278 278 278 278 278 278 278 278
267 268 270 271 271 270 271 274 276 276 277 278 280 283 284 285 286 286 286 286 286 286 286 285 285 284 284 285 286 286 286 286 286 286 287 287 287 286 286 285 284 284 284 284 286 286 285 285 283 281 283 285 284 283 282 279 282 283 283 283 283 283 283 283 282 282 282 282 282 282 282 280 280 280 280 280 279 279 279 279 278 278 279 278 278 278 277
265 266 267 268 268 268 269 270 272 273 273 273 274 277 279 281 283 284 285 286 286 285 285 285 285 285 286 285 285 285 285 285 285 285 286 286 286 285 285 285 286 286 284 285 287 287 286 285 281 281 283 284 284 284 282 278 279 282 283 283 283 283 282 282 282 282 282 282 282 282 282 281 281 280 280 280 280 279 279 279 279 279 278 278 278 278 277
262 264 264 265 267 266 267 268 269 270 270 270 271 273 277 279 280 282 282 284 285 285 285 285 285 284 284 283 284 284 284 285 285 285 285 285 285 285 285 286 287 287 288 288 287 287 286 283 285 284 284 284 284 284 281 278 278 282 283 283 283 283 283 282 282 282 282 282 282 282 282 281 281 280 280 280 280 280 279 279 279 279 278 278 278 278 278
259 261 261 263 264 265 265 265 267 267 269 271 271 272 275 276 276 277 279 281 283 284 285 285 284 284 284 283 283 284 285 285 285 285 284 285 285 284 285 286 286 286 286 281 286 287 284 280 282 285 285 284 284 284 282 279 277 281 282 283 283 282 282 282 282 282 282 282 281 278 281 282 281 281 281 280 280 280 280 279 278 279 279 278 278 278 278
258 259 259 261 263 263 263 263 264 267 269 269 270 271 273 274 275 276 277 279 281 283 284 284 284 285 285 284 284 285 285 285 285 285 284 284 283 284 284 284 285 286 286 287 287 286 285 281 284 285 285 285 284 280 284 278 278 280 282 282 282 282 282 282 281 282 281 281 281 281 281 281 281 281 281 281 280 280 280 279 279 279 279 278 278 278 278
257 258 258 260 262 261 262 262 265 265 265 267 268 270 271 272 274 275 276 277 277 279 282 284 283 284 285 285 285 285 284 284 284 284 284 284 284 285 284 286 285 287 283 284 284 284 286 285 284 280 285 285 284 278 278 280 279 280 281 282 282 282 282 282 281 281 282 282 282 281 281 281 281 281 281 280 280 280 280 280 279 279 279 279 279 279 278
255 257 257 259 260 260 260 261 264 264 263 265 267 267 270 272 271 271 271 272 273 275 277 280 282 283 284 284 283 283 283 284 283 283 283 284 285 285 285 286 286 286 280 284 286 286 286 287 286 285 281 283 282 277 276 281 280 280 281 282 282 282 281 282 282 282 282 282 281 281 281 281 281 281 281 280 280 280 280 280 279 279 279 279 279 279 279
256 256 257 258 258 259 260 261 263 262 261 263 264 267 269 269 269 268 267 268 270 271 274 276 278 280 282 283 283 283 284 285 285 285 285 285 285 285 285 286 286 284 279 284 286 286 286 286 287 284 278 278 278 276 279 281 281 281 281 281 281 281 281 281 281 281 281 281 281 281 281 281 281 281 281 280 280 280 280 280 280 280 279 279 279 280 279
256 256 256 257 258 258 258 260 261 260 261 262 265 266 267 266 266 266 266 266 267 269 272 273 275 278 280 281 282 283 284 285 285 285 284 284 283 285 285 282 286 284 284 280 284 285 286 286 284 280 278 277 276 275 279 281 281 280 281 281 281 281 281 281 281 281 281 281 281 281 281 281 281 281 281 281 278 280 280 280 280 280 280 279 279 279 279
255 256 256 257 257 257 258 260 261 261 261 262 262 263 263 263 263 264 264 264 264 268 270 272 274 274 274 276 278 281 283 284 285 285 286 285 284 285 287 283 286 282 283 280 284 285 286 280 279 278 277 276 275 276 279 280 281 281 280 280 281 281 281 281 281 281 281 281 281 281 281 281 281 281 281 281 281 281 281 280 280 280 280 280 280 280 279
254 255 255 256 256 257 258 260 261 259 259 260 259 259 260 261 261 261 262 263 265 268 268 270 272 271 272 272 274 277 279 280 281 284 285 286 286 283 282 279 278 279 280 284 285 286 286 285 280 277 277 276 274 278 279 280 280 280 280 280 280 281 281 281 281 281 281 281 281 280 277 281 281 281 280 278 281 281 281 280 280 280 280 280 280 279 278
254 254 255 256 255 256 258 259 258 257 257 257 258 258 259 259 259 259 261 264 265 265 266 269 270 269 269 270 273 277 278 277 276 278 283 282 282 282 283 284 284 278 281 279 280 278 278 277 277 277 276 275 277 278 280 280 280 280 280 280 280 280 280 281 281 281 281 281 280 280 280 280 280 281 281 280 280 281 281 280 280 280 280 280 279 279 279
253 254 255 255 255 256 256 258 257 256 256 257 256 256 258 257 257 258 260 262 262 263 264 266 267 267 268 270 271 272 274 276 276 275 278 279 279 280 281 279 277 277 281 283 283 284 280 278 276 276 275 273 278 279 280 280 280 280 280 280 280 280 280 280 281 281 281 280 280 280 280 280 280 280 280 280 280 281 280 280 280 280 280 280 279 279 279
253 254 254 254 255 254 255 256 256 256 256 256 255 256 256 255 255 256 259 260 260 262 262 263 264 266 267 267 268 269 270 272 275 276 277 277 279 280 281 281 281 278 278 282 282 283 276 277 275 275 275 278 279 279 280 280 280 280 280 280 280 280 280 280 274 276 280 280 280 280 280 280 280 279 280 280 280 280 280 280 280 276 273 275 279 279 279
253 253 253 254 254 255 255 256 256 256 255 255 255 255 255 254 254 257 257 258 259 259 259 260 262 263 265 266 266 267 269 271 273 272 274 275 277 276 276 277 280 278 280 281 282 282 283 283 283 281 278 278 279 279 279 280 280 280 277 280 280 280 280 279 279 279 279 280 280 280 280 280 280 280 280 280 279 279 279 279 279 279 278 278 279 279 279
252 253 253 253 254 254 255 256 255 255 255 254 253 254 254 254 254 254 255 257 257 256 257 257 258 261 263 264 265 266 268 270 271 271 271 273 275 277 277 274 279 279 280 280 281 281 282 282 278 276 275 280 280 280 274 274 278 279 279 279 276 280 280 280 280 280 280 279 279 280 279 280 280 279 279 280 279 279 279 279 279 279 279 279 279 279 279
Wind_Speed
14 13 10 5 5 9 10 12 13 14 16 17 20 23 20 10 12 20 2 14 18 23 22 23 22 21 18 18 19 18 17 18 18 16 15 16 15 13 11 11 10 9 9 9 9 8 7 8 9 9 9 10 12 12 12 12 11 10 9 12 11 11 14 14 10 8 8 7 9 11 12 12 12 13 13 10 10 10 10 10 10 11 10 11 11 10 9
9 12 11 8 11 12 12 16 19 18 17 21 24 25 22 22 23 23 24 24 27 27 26 26 25 21 17 18 17 18 18 18 16 14 15 15 15 13 12 11 10 8 9 10 9 8 9 9 10 10 9 9 10 11 10 10 11 10 12 14 14 13 12 11 9 10 11 10 10 10 11 13 13 11 10 10 10 10 11 11 10 11 12 12 12 12 12
7 12 10 11 13 14 16 17 19 19 19 20 23 23 23 23 26 31 31 29 28 27 25 24 23 17 14 15 18 17 17 15 14 14 15 15 14 12 11 10 9 8 8 9 9 9 10 10 11 10 9 9 9 10 10 11 11 11 11 13 12 10 10 9 11 11 11 10 9 11 11 9 10 11 11 10 11 11 11 11 12 12 12 13 12 12 13
5 4 5 8 7 10 14 15 18 17 18 19 21 19 23 20 26 27 21 19 21 25 19 9 12 13 14 15 15 13 12 13 12 13 15 14 13 12 11 10 8 7 8 9 10 10 11 11 12 10 9 10 9 10 10 10 10 10 11 7 8 9 12 10 10 12 11 11 10 10 10 10 11 10 10 11 11 11 11 12 12 11 12 13 12 12 11
7 2 2 3 6 8 14 18 21 21 23 23 19 18 18 22 25 16 13 20 21 20 4 7 14 13 13 13 12 10 11 12 13 14 15 14 12 11 10 10 8 7 8 9 10 10 10 11 11 11 11 10 11 10 10 12 9 10 11 9 11 10 9 10 10 11 11 12 11 10 11 11 11 11 11 12 11 11 13 11 10 12 12 12 12 12 11
1 1 3 2 4 14 9 7 9 13 17 18 21 20 21 23 19 18 19 19 16 12 11 12 18 17 14 7 10 6 9 13 16 16 14 12 11 10 9 8 7 7 6 7 8 10 10 11 11 10 12 11 12 11 10 11 12 13 12 11 11 11 9 10 10 11 11 11 11 11 10 11 12 11 11 12 11 10 10 10 11 12 12 13 12 12 11
1 1 2 6 15 13 4 2 2 3 4 6 16 19 18 19 22 23 21 22 22 24 19 15 15 14 14 11 13 17 15 12 12 15 15 12 10 10 9 8 6 6 7 7 8 10 10 11 10 10 11 11 11 11 12 13 14 12 13 12 12 13 10 10 11 11 11 11 11 11 11 11 11 11 12 11 11 11 11 12 14 14 14 14 12 12 11
1 1 3 5 8 5 6 8 11 5 7 6 4 15 22 21 20 24 25 27 26 24 18 13 11 9 8 11 15 15 15 12 11 10 10 10 8 9 8 7 6 6 7 9 9 9 9 10 11 11 10 10 11 11 12 12 13 13 14 13 13 13 10 10 11 11 10 11 11 11 12 11 12 12 11 11 12 11 11 10 10 10 10 10 11 12 12
8 4 11 17 12 22 15 11 10 8 7 9 10 10 13 11 18 20 21 25 23 20 15 13 3 3 4 10 13 12 7 6 7 9 10 8 8 8 8 6 6 5 5 7 8 8 9 11 11 11 11 10 10 10 11 12 12 13 14 13 14 14 12 11 11 12 12 11 10 11 12 13 13 12 11 13 11 10 11 11 11 11 11 11 10 11 11
8 7 8 7 4 13 3 4 0 2 2 6 4 3 13 5 13 17 20 19 19 15 12 7 3 4 4 8 7 3 4 6 7 6 7 6 6 7 7 5 4 4 4 5 7 9 10 11 11 11 13 11 11 10 11 12 13 13 14 15 14 14 14 14 13 12 12 12 11 11 12 14 13 11 11 10 12 10 13 12 12 11 10 9 9 11 12
4 5 6 8 11 7 4 2 3 1 1 3 2 2 11 6 9 11 14 16 14 9 8 4 8 6 5 6 4 2 4 5 5 6 5 4 5 5 6 5 4 4 5 6 8 9 10 11 11 12 12 13 12 10 11 12 13 14 14 15 16 15 15 13 12 13 12 12 11 12 11 13 11 12 13 12 10 10 11 9 9 9 8 9 9 8 9
8 6 8 14 6 9 2 4 3 4 2 4 3 6 6 2 4 5 9 13 11 6 6 9 8 9 5 5 3 0 2 1 2 5 5 4 4 4 4 4 4 3 4 6 8 10 11 12 12 12 12 13 15 13 13 12 14 16 16 15 14 14 13 13 12 12 12 13 12 12 11 11 10 10 10 10 11 11 10 9 9 9 9 9 10 9 8
13 16 13 8 13 9 10 12 4 2 3 2 0 12 7 4 4 6 8 8 6 6 9 10 8 11 7 1 2 1 2 4 5 6 6 5 3 3 4 4 3 4 6 7 9 10 10 11 12 12 12 13 14 15 15 14 15 14 14 13 13 13 14 15 14 13 13 13 13 12 11 12 11 11 11 11 10 11 11 9 9 8 10 10 9 8 9
13 12 12 12 13 16 12 13 13 8 2 4 16 10 3 2 1 4 6 6 7 8 7 10 8 5 6 5 3 5 5 5 7 5 4 4 4 4 3 3 5 4 5 7 7 7 8 11 12 13 13 13 13 14 14 16 16 13 13 14 13 13 15 16 14 12 13 13 13 12 12 12 12 10 9 10 10 11 9 9 9 9 8 7 8 7 7
3 2 5 4 12 4 19 16 11 9 8 13 8 1 2 3 2 3 5 5 6 9 8 9 7 8 7 6 6 5 5 5 8 8 5 6 6 5 5 5 7 7 6 7 8 9 8 10 11 12 15 15 14 14 15 15 14 14 13 13 15 14 13 13 12 12 10 11 9 8 8 9 9 10 9 9 8 8 10 8 9 8 8 7 7 7 6
9 12 13 14 6 9 12 20 13 17 23 19 4 3 6 6 5 6 3 5 7 9 7 8 10 10 8 9 10 9 9 8 7 6 7 6 4 4 4 5 7 9 7 6 7 8 8 10 11 12 14 14 14 15 16 12 11 13 15 16 15 14 14 13 8 8 8 10 9 9 12 11 10 10 10 9 9 9 9 9 9 10 8 9 8 8 9
11 11 15 7 6 8 13 18 11 13 24 23 12 5 7 3 4 3 4 7 7 8 8 6 5 3 7 10 9 6 8 6 5 4 5 6 6 5 6 7 7 8 8 9 7 8 8 11 11 11 12 13 12 15 13 11 11 12 12 12 13 14 15 14 13 12 11 11 13 13 12 14 13 10 10 11 11 10 9 10 10 10 10 10 11 10 10
13 15 11 4 6 9 10 14 9 6 9 16 12 9 8 7 6 6 6 4 5 7 7 6 4 7 7 7 8 8 8 8 8 7 6 7 6 5 4 4 7 8 6 6 7 9 9 11 11 11 12 12 13 14 11 12 13 13 12 11 11 11 11 10 10 11 13 12 13 13 13 11 12 11 13 13 12 11 11 11 10 10 10 10 10 10 10
9 13 14 22 20 14 13 12 13 15 9 6 6 8 9 11 7 5 7 6 4 2 4 6 9 8 7 9 9 8 7 8 10 8 8 8 7 6 8 7 7 6 7 7 9 9 10 11 11 11 12 12 12 9 11 12 12 11 11 13 12 11 10 8 9 11 12 10 9 10 12 9 9 10 9 11 11 11 12 12 12 12 11 11 10 10 10
14 12 10 17 18 21 16 13 13 17 16 15 12 11 9 10 9 6 9 6 8 6 6 10 9 10 9 10 10 8 8 8 8 8 8 10 8 8 7 4 7 5 8 8 9 10 10 11 11 11 12 13 12 10 9 9 8 10 12 13 13 11 12 10 10 11 11 12 11 9 9 10 10 10 10 10 12 13 14 15 14 14 12 12 13 12 12
15 13 16 13 8 6 7 12 16 15 13 13 12 13 12 9 11 12 12 10 10 8 11 8 9 10 12 11 11 10 9 9 8 9 10 10 11 6 7 8 9 10 9 9 10 10 10 9 10 10 11 11 10 11 8 8 11 12 11 13 12 10 12 9 10 9 11 11 12 11 10 9 9 10 10 11 11 10 9 9 11 11 11 11 10 10 10
14 15 20 11 10 15 13 17 16 15 16 12 13 10 8 11 14 14 15 18 12 9 10 10 10 12 12 12 9 11 10 10 11 10 10 11 11 10 9 7 9 9 9 10 9 11 11 9 9 9 11 11 9 9 7 9 12 14 13 10 10 11 10 11 10 10 10 10 11 11 11 12 11 10 14 17 12 10 10 15 18 16 12 12 11 9 9
16 17 13 9 17 17 12 6 10 16 16 15 14 14 14 13 14 13 13 14 14 12 14 11 10 12 12 14 12 11 9 11 11 10 11 11 10 11 10 5 6 10 10 11 9 10 9 5 7 9 10 10 10 10 10 9 11 11 10 10 10 10 10 10 12 12 11 11 10 10 10 11 11 10 9 11 14 15 16 16 19 21 20 17 14 18 14
20 13 8 15 16 18 12 13 9 9 11 13 16 15 15 17 18 16 15 13 13 14 13 10 12 13 13 13 11 12 13 13 13 13 12 12 12 11 8 7 8 9 9 8 10 13 11 8 11 8 10 10 10 9 11 12 12 12 13 12 11 12 13 11 13 12 10 10 9 10 10 9 10 10 11 10 10 14 18 17 18 20 22 22 21 20 20
18 10 7 14 15 15 11 11 10 9 10 11 12 13 16 17 17 14 11 12 13 15 15 12 9 11 12 12 11 12 12 14 13 14 11 12 11 9 10 7 8 9 12 11 11 10 8 7 8 7 9 9 9 11 13 13 13 14 15 14 11 9 10 10 11 13 11 10 10 11 10 11 10 11 11 12 11 10 12 16 17 18 20 21 21 20 19
19 10 9 14 12 10 2 4 11 9 11 10 9 11 16 15 15 11 11 12 12 13 13 12 11 10 11 12 10 11 11 14 14 12 9 11 11 8 8 11 14 13 11 9 10 10 9 11 11 9 10 9 11 13 13 13 14 15 15 16 15 11 10 11 11 11 11 11 12 12 12 11 11 11 12 11 12 10 9 9 10 12 18 22 22 22 21
17 13 13 16 20 19 11 13 18 13 11 8 12 14 18 15 10 9 8 10 12 13 12 12 11 10 6 8 10 11 10 13 8 10 10 10 12 13 13 11 11 11 10 9 8 11 12 11 10 10 12 12 11 11 12 14 14 14 14 14 10 12 15 12 9 11 11 11 11 10 10 11 11 10 11 9 10 9 11 12 12 13 13 14 20 25 19
16 14 14 18 22 21 18 19 22 19 13 10 12 15 17 10 4 4 7 10 11 10 8 7 8 6 7 7 6 9 8 9 12 13 12 14 14 12 11 9 10 9 9 9 10 9 8 8 9 10 13 10 8 10 12 13 14 15 13 14 11 10 9 12 10 9 10 10 10 11 11 11 11 10 10 9 10 11 9 8 9 9 9 10 10 17 26
16 15 15 19 24 23 18 11 11 7 10 12 13 13 9 8 6 6 9 13 14 9 8 8 6 7 8 10 7 10 11 11 11 13 15 15 13 11 10 8 8 8 8 9 8 6 6 7 9 11 13 6 8 10 12 14 14 13 12 10 10 10 10 10 10 10 10 10 10 11 11 9 9 9 9 9 9 9 9 11 11 10 10 7 6 8 13
14 14 16 19 24 22 16 17 20 12 11 11 9 6 5 6 8 8 10 12 9 10 11 9 4 7 9 10 11 11 11 13 16 15 13 12 12 9 8 6 5 5 6 7 9 9 10 11 12 14 14 9 11 12 13 14 13 15 15 15 13 12 11 13 10 11 8 8 10 14 10 9 9 10 10 10 10 10 10 11 11 10 10 10 10 10 12
7 11 16 18 20 14 14 20 19 14 14 12 14 11 6 8 11 12 11 11 8 9 9 8 8 9 10 12 12 10 10 11 12 12 13 12 10 9 9 5 7 8 10 11 11 11 11 12 12 14 11 8 11 12 13 13 10 11 11 10 10 16 17 16 14 11 10 9 9 11 10 10 10 10 10 10 10 11 11 10 10 10 10 8 9 10 10
9 11 15 16 15 13 14 13 14 15 13 11 11 15 11 10 13 13 10 10 12 11 10 10 11 13 14 11 9 10 11 11 11 12 11 10 11 10 9 9 11 13 12 11 8 9 10 11 13 15 9 8 10 12 13 13 11 9 11 12 11 9 14 19 10 12 9 8 9 10 10 11 11 10 10 10 11 12 11 10 11 11 10 10 10 11 9
10 12 13 15 14 12 14 15 14 16 12 11 14 15 9 7 9 8 10 11 10 9 9 11 12 13 12 10 9 10 10 11 10 10 10 11 12 12 11 9 10 12 12 11 10 9 10 12 14 9 6 9 10 12 13 13 12 9 9 9 9 11 12 14 15 10 10 10 10 11 10 10 10 10 12 11 10 10 10 11 10 10 11 10 11 8 9
10 13 13 13 13 14 16 17 13 11 12 11 12 12 11 7 8 9 10 10 11 11 11 12 13 12 10 10 10 9 9 8 7 10 13 13 13 13 12 11 10 11 13 11 9 8 9 11 10 7 8 10 11 11 13 13 12 9 11 8 9 9 10 9 13 11 10 11 11 14 11 11 11 11 11 10 10 10 10 10 10 9 10 10 9 8 12
8 8 8 8 10 9 9 7 8 8 10 10 10 10 8 6 7 9 10 11 13 13 12 11 10 10 10 10 9 9 10 12 13 13 13 12 11 11 10 8 8 9 11 12 10 10 11 11 9 8 8 10 11 12 12 14 13 11 11 12 12 10 9 8 11 12 12 12 10 10 11 12 12 11 10 10 10 10 11 10 10 9 9 9 9 7 10
13 10 9 9 9 10 9 8 8 8 7 7 7 7 6 5 7 8 10 11 10 9 8 8 9 9 9 8 9 11 12 12 12 12 13 14 13 10 9 8 8 10 11 13 10 9 11 10 11 13 10 9 10 11 13 12 13 12 12 11 10 8 10 10 10 9 9 9 10 11 10 14 14 10 12 11 10 9 10 10 11 11 11 9 8 8 8
12 11 9 9 8 10 9 8 10 11 9 7 7 8 9 8 8 7 5 5 5 7 8 8 7 8 10 11 12 12 11 10 10 11 12 12 10 9 9 8 8 9 10 12 9 7 11 9 13 17 12 9 10 11 13 17 10 10 10 10 9 8 8 9 9 9 11 10 10 10 13 10 9 9 12 10 10 10 10 10 13 11 9 8 7 7 7
11 11 11 10 10 10 9 9 10 11 12 13 7 4 7 9 10 10 8 6 6 6 7 9 10 10 10 9 9 11 11 11 12 13 13 12 11 12 12 8 8 6 8 9 9 8 5 9 15 12 9 10 10 11 12 18 18 12 8 8 8 8 11 9 9 9 11 10 11 9 9 9 11 10 10 10 10 9 9 9 8 9 8 9 9 9 10
12 10 10 10 9 10 10 10 10 10 11 13 13 10 6 7 8 8 8 7 7 7 7 9 9 10 11 10 11 10 11 11 13 13 12 12 11 12 13 9 9 8 10 8 6 8 8 9 9 8 9 10 12 11 12 17 20 13 10 10 12 10 11 11 12 13 12 13 11 10 10 10 8 10 9 10 9 11 13 14 13 11 8 9 8 10 10
11 11 12 12 10 11 12 11 11 11 11 10 12 13 12 12 10 10 10 9 7 6 8 8 9 10 10 9 10 11 12 12 12 12 13 12 11 13 12 11 10 9 11 12 10 9 11 14 10 6 7 9 10 9 9 14 16 12 10 8 7 8 10 11 12 11 12 11 12 14 11 12 12 13 12 10 9 11 9 9 11 12 9 8 9 9 8
11 12 12 11 9 9 10 12 11 11 11 13 13 14 13 13 13 13 13 12 12 10 10 10 10 12 12 11 11 13 12 10 10 11 10 9 10 9 8 13 4 7 10 9 9 11 14 12 10 9 8 8 8 10 8 13 13 8 12 11 11 11 12 12 12 13 12 13 12 10 11 9 12 11 10 10 11 10 9 9 10 9 9 9 10 9 9
13 13 13 11 10 11 11 11 9 11 13 11 12 12 14 14 12 12 13 13 13 11 10 10 11 13 13 12 12 12 11 10 10 10 9 11 10 8 9 11 2 5 9 12 12 12 10 10 9 9 9 8 8 13 13 10 8 10 11 11 11 12 12 12 12 13 12 12 9 8 10 11 10 8 12 9 9 7 10 9 8 9 9 9 9 10 9
14 14 14 12 12 13 12 12 10 12 13 11 11 12 13 11 12 13 13 13 12 12 12 11 12 12 12 12 12 13 12 9 10 11 11 12 13 12 12 11 2 5 10 9 8 8 9 7 7 6 11 12 10 14 16 9 6 8 9 11 11 12 12 12 12 11 11 12 10 10 11 8 9 10 13 9 9 8 10 10 10 9 10 10 10 9 9
14 13 13 13 13 13 11 11 11 12 13 12 12 12 11 11 11 12 13 13 14 13 12 12 12 12 13 12 11 10 9 7 8 7 9 11 7 8 9 9 8 10 13 10 9 10 9 8 7 8 12 16 16 16 12 8 10 7 11 11 11 11 12 12 12 12 12 12 13 10 11 13 11 10 12 9 9 10 11 8 8 9 9 9 9 9 10
13 13 14 14 15 13 10 10 11 13 13 13 12 12 11 11 13 13 13 13 13 13 13 12 12 12 12 11 11 10 9 9 9 9 10 10 11 7 3 9 10 7 9 12 10 10 9 8 10 12 11 15 17 17 11 7 8 9 11 11 12 12 12 13 13 13 13 13 13 12 11 12 12 13 13 14 14 11 10 13 12 12 10 10 9 10 10
13 13 14 15 13 13 12 11 10 10 12 12 11 9 9 12 13 13 13 14 14 13 12 13 12 12 14 14 13 13 10 8 6 6 8 9 10 11 8 8 7 6 10 11 9 9 9 12 13 12 13 15 16 14 8 9 8 8 10 11 11 12 12 12 12 13 13 13 12 12 11 10 8 9 9 7 9 11 13 14 11 10 9 10 8 9 7
13 13 14 14 15 14 15 11 10 12 12 11 11 11 13 14 15 12 14 17 14 13 13 12 10 13 13 14 13 12 11 10 7 5 5 5 7 9 8 10 11 13 12 8 8 8 8 10 10 13 14 15 15 9 7 7 7 7 8 10 11 12 12 12 12 12 12 12 12 12 12 10 8 9 10 11 11 12 12 12 11 7 9 11 11 12 12
14 14 13 16 17 16 15 11 9 9 10 9 11 11 12 14 16 15 14 11 13 15 14 11 10 11 13 15 14 12 10 10 12 7 5 9 9 9 10 8 10 13 13 12 14 14 16 16 16 13 14 14 10 7 7 8 8 7 8 9 8 7 10 11 11 11 12 12 12 11 9 8 11 9 10 8 9 11 11 12 12 10 8 8 8 9 12
12 12 12 12 11 13 13 9 8 9 8 10 11 10 12 15 17 14 12 12 15 13 12 13 13 12 11 12 13 11 11 10 9 11 10 10 11 10 10 12 13 13 11 10 10 9 11 13 14 14 15 12 8 5 7 9 10 9 10 9 8 9 11 12 12 11 11 12 12 12 12 13 10 7 10 10 11 12 11 11 12 11 11 11 12 11 12
10 8 8 8 9 9 10 8 7 8 10 10 9 10 11 12 10 10 10 11 11 13 12 11 11 11 11 10 10 11 11 12 12 12 12 12 12 10 10 10 10 13 14 12 10 10 10 13 13 12 11 6 6 8 9 10 10 10 11 11 12 11 13 13 11 13 13 12 12 12 12 12 12 13 13 11 11 12 11 12 11 13 16 12 9 11 11
9 8 8 8 8 9 11 9 8 10 10 10 10 11 11 9 10 11 10 11 10 10 10 11 10 10 10 10 10 10 11 11 11 14 13 13 12 12 12 11 11 11 11 11 9 8 8 7 7 6 8 7 7 7 8 9 9 10 11 11 12 11 11 12 11 12 13 12 12 12 12 11 11 12 12 12 12 12 11 10 11 10 11 11 12 12 12
8 8 8 7 7 8 8 7 8 8 8 9 10 11 10 11 11 11 9 11 10 10 11 13 14 10 9 11 11 11 11 12 11 11 13 13 13 13 12 12 11 10 10 9 9 9 8 8 8 9 9 8 6 6 9 11 11 10 10 10 10 11 11 11 11 12 12 13 13 12 13 12 11 12 12 11 11 11 12 11 11 11 11 12 12 12 12
Wind_Direction
253 264 269 200 225 240 249 243 238 221 205 199 210 221 225 190 213 245 251 165 225 251 264 274 278 278 284 295 296 302 301 298 293 292 295 296 294 295 292 286 271 256 250 254 250 238 229 224 214 204 194 193 189 179 173 172 171 165 162 173 170 168 177 179 167 158 156 162 171 169 165 168 170 169 171 156 149 156 159 160 167 166 159 158 158 164 165
258 258 252 238 237 248 244 243 239 234 226 219 216 229 225 220 237 247 260 269 268 266 269 271 271 278 291 290 296 297 291 287 289 294 293 292 295 298 298 296 282 254 246 251 242 229 219 210 202 192 182 175 172 168 167 165 166 169 170 179 177 177 175 173 162 158 170 176 178 169 167 172 173 161 147 149 152 155 162 166 163 163 162 166 171 174 173
254 258 254 245 242 240 249 248 244 234 233 236 233 235 237 235 248 252 254 261 270 268 257 261 272 281 286 292 284 280 282 283 285 290 290 291 295 299 301 297 283 255 241 245 236 224 215 206 196 183 174 171 168 167 162 163 165 166 169 180 180 172 170 170 172 164 162 167 171 172 170 157 148 152 155 152 156 160 163 167 167 165 167 173 180 179 176
255 201 231 242 250 254 251 257 256 237 224 234 232 227 229 217 232 241 250 258 257 262 267 256 255 268 273 271 277 281 285 285 286 286 289 293 297 302 302 299 285 252 237 237 229 221 214 207 195 179 171 170 167 167 161 162 165 164 172 167 162 168 177 164 170 167 162 163 169 171 164 156 156 152 152 155 160 163 166 168 172 168 173 180 180 177 177
253 150 120 298 279 287 259 235 237 230 220 216 229 228 227 217 220 231 228 234 236 248 262 291 284 270 267 270 269 280 287 290 292 289 288 289 292 294 298 297 284 249 232 234 229 221 214 208 197 181 174 169 173 170 163 168 147 159 176 171 178 177 172 170 173 169 164 166 167 170 168 159 157 157 160 162 163 169 174 173 165 173 180 179 182 180 178
83 332 293 221 318 266 231 108 202 206 216 211 221 232 222 222 201 220 221 237 257 259 253 246 260 273 271 283 296 276 267 285 292 290 284 281 286 290 287 281 275 252 223 227 228 222 213 207 196 182 182 178 178 173 164 166 164 171 175 175 177 176 167 174 173 174 171 168 169 171 164 159 161 161 157 166 169 168 167 167 173 180 183 184 184 183 181
234 108 257 296 254 252 58 63 321 253 266 223 223 237 233 223 212 226 240 249 254 255 252 250 248 258 282 310 300 294 284 262 259 269 278 283 286 289 291 286 267 238 214 212 223 217 211 202 191 183 189 183 177 174 171 170 174 173 177 180 181 183 174 172 176 176 174 173 173 173 168 166 162 162 163 165 170 174 175 179 182 185 184 185 186 182 180
15 108 163 251 232 345 291 281 267 198 213 227 256 273 253 239 212 213 228 239 246 251 254 242 241 262 302 313 290 270 267 258 248 253 258 267 277 286 285 286 276 236 210 205 206 212 207 199 186 179 182 186 181 175 172 172 176 174 176 181 186 185 176 172 178 178 177 175 176 172 169 168 166 166 170 171 172 174 177 182 186 182 183 184 182 182 181
225 165 207 234 318 311 286 276 261 182 199 172 188 235 271 197 209 211 222 236 242 246 247 250 218 73 325 290 283 271 246 239 225 226 249 266 276 277 279 266 266 254 220 202 192 194 199 201 190 176 179 182 184 176 175 178 178 181 183 185 189 191 187 179 177 178 181 180 176 172 173 172 173 171 167 178 176 175 178 185 183 184 182 184 181 178 175
196 233 263 265 274 256 143 191 301 257 318 187 210 8 279 194 206 199 209 225 237 236 243 241 127 104 270 266 255 213 196 199 223 236 246 266 265 267 269 263 254 245 221 191 180 184 193 200 201 187 176 175 182 178 179 181 185 187 188 190 190 192 195 189 181 179 183 184 181 179 178 180 176 173 173 179 180 176 180 184 183 183 181 178 181 184 183
157 206 234 234 243 245 68 136 158 235 178 156 165 240 274 275 204 191 201 224 238 229 225 157 133 175 211 228 233 187 186 203 210 236 245 231 249 264 257 251 239 212 202 192 177 179 188 194 197 197 181 166 178 183 186 190 190 193 195 194 193 193 194 189 181 181 180 181 184 187 183 182 181 174 178 178 176 169 179 179 181 180 181 177 177 182 186
205 211 226 244 209 245 168 185 192 191 101 116 164 280 270 147 143 182 202 222 239 223 168 148 178 188 208 217 222 128 155 275 227 226 240 214 208 233 244 248 245 207 172 167 181 183 191 193 188 193 193 189 185 186 192 192 199 202 201 199 196 194 193 193 187 184 181 183 182 183 175 179 182 177 173 167 165 166 175 177 180 183 177 184 183 189 182
219 216 249 302 267 235 235 242 149 171 163 212 341 240 206 151 168 187 201 208 203 161 159 169 185 220 219 152 80 33 302 308 260 227 238 247 230 222 219 227 191 187 182 191 196 194 187 185 182 186 192 198 197 192 191 197 204 205 202 199 197 194 192 191 191 185 183 187 181 181 181 180 174 175 169 163 162 169 176 180 182 181 181 186 186 186 185
219 215 237 253 296 255 195 226 158 173 155 215 222 239 91 146 135 182 213 194 167 174 173 192 218 229 231 292 289 269 234 237 271 277 260 241 233 218 232 217 193 192 186 197 198 193 188 176 180 182 187 201 205 202 197 200 203 200 197 198 195 194 196 195 192 184 183 184 181 177 177 173 170 161 163 170 175 174 178 181 179 177 173 179 184 184 180
73 132 234 279 260 254 192 158 152 197 207 237 239 18 259 140 194 161 217 203 177 170 194 215 228 259 256 242 263 269 261 251 252 256 245 235 224 197 183 194 203 189 187 197 201 196 186 182 179 187 187 197 207 209 213 207 188 189 195 197 194 193 192 193 193 186 177 164 162 151 152 157 165 179 174 172 171 168 176 171 173 172 177 179 181 188 188
169 175 201 214 218 88 158 154 184 191 212 232 224 137 264 213 193 216 186 223 183 194 195 196 222 233 255 288 268 263 266 253 254 250 249 249 254 233 216 198 182 187 194 192 194 194 188 187 190 189 192 196 200 209 218 210 196 187 183 187 193 199 203 200 170 162 168 178 179 174 183 178 176 176 175 173 175 183 183 180 180 183 186 183 189 193 193
187 200 217 202 88 180 183 194 213 202 208 223 229 191 248 200 228 183 212 205 187 190 209 223 209 226 221 234 253 254 258 269 252 254 253 242 229 222 208 209 187 189 196 188 188 189 194 192 192 199 199 201 199 207 203 189 189 186 187 188 188 189 189 188 182 181 181 185 187 190 188 186 187 181 173 173 185 185 177 184 184 185 187 184 192 195 195
223 270 258 58 259 224 216 224 236 248 240 231 228 207 238 239 220 179 193 200 173 195 203 213 224 224 239 237 248 248 256 263 269 259 261 260 246 232 221 215 191 195 193 188 183 194 197 198 199 200 204 204 205 209 191 187 182 181 184 188 192 193 190 188 182 179 187 190 193 193 190 190 191 185 181 181 184 180 183 188 187 186 188 185 190 189 194
138 250 207 231 236 234 223 222 239 247 233 251 230 233 235 249 229 202 227 246 256 174 174 201 226 240 232 242 253 256 258 253 255 257 252 253 236 221 216 205 161 185 186 196 202 197 202 199 202 204 205 210 214 199 195 188 185 182 180 184 191 194 196 192 187 190 192 191 189 190 194 191 191 190 186 184 185 186 186 188 189 192 193 187 188 192 195
203 236 135 202 226 234 228 213 227 236 239 235 229 227 240 247 258 251 246 226 248 202 206 211 221 246 248 239 247 245 242 246 250 251 250 251 245 225 224 180 179 188 191 200 198 196 208 201 198 203 206 212 205 195 186 181 179 180 186 190 191 189 188 184 188 187 193 188 185 189 190 188 190 192 193 190 194 196 192 191 187 191 190 189 192 191 194
241 269 269 248 270 280 241 238 236 237 236 233 238 236 238 245 257 256 250 215 231 220 233 222 226 244 249 241 241 250 254 254 248 246 251 254 250 242 204 195 182 201 197 202 206 198 214 194 188 198 207 210 203 199 184 178 182 187 193 194 194 187 186 182 189 180 187 182 190 190 187 189 203 201 190 191 199 204 203 193 194 187 185 197 195 193 188
233 217 229 202 241 253 225 222 228 235 241 240 244 238 224 226 238 241 250 257 242 227 232 230 225 231 247 250 237 237 238 247 254 256 250 252 253 243 229 197 192 212 217 216 211 210 220 194 184 197 205 209 202 194 177 183 186 191 190 185 191 195 191 192 190 183 192 189 188 189 186 190 194 202 210 207 202 202 204 207 210 212 201 202 192 182 190
234 220 227 199 230 251 250 234 208 220 225 227 226 225 230 232 229 233 237 252 260 237 221 215 215 228 233 243 241 243 241 245 245 247 256 259 253 251 242 208 206 202 218 220 226 231 228 193 191 201 203 203 200 194 191 186 190 191 181 184 192 196 193 199 193 185 186 190 188 193 192 192 194 194 196 212 215 215 216 209 208 211 212 216 204 208 205
242 238 176 215 229 241 237 237 227 204 218 220 227 229 231 235 237 234 234 235 245 257 247 202 199 220 227 236 238 246 252 250 254 253 248 245 246 255 244 222 222 211 219 217 219 226 223 198 207 201 207 205 195 186 188 194 195 194 190 191 193 197 196 198 194 193 191 188 178 184 191 187 191 191 197 200 211 218 217 213 208 208 211 213 212 209 210
234 216 189 232 233 243 245 252 241 218 219 212 212 218 228 235 237 232 229 234 234 243 256 250 213 199 220 232 229 238 242 252 249 249 249 250 253 243 245 238 232 215 217 211 213 219 218 209 209 202 204 208 186 190 194 195 191 195 198 201 201 196 195 191 190 192 194 189 189 189 186 184 190 192 196 200 202 205 212 218 216 213 215 216 216 215 212
239 227 209 246 250 248 141 242 248 222 231 210 201 220 237 235 240 228 215 227 239 239 241 247 249 228 193 222 227 230 242 251 254 252 247 248 250 241 235 233 233 225 223 217 209 217 222 220 215 210 214 211 195 195 189 190 193 200 201 205 208 202 190 185 186 191 195 192 191 195 194 192 193 192 199 199 203 196 184 188 213 227 225 222 219 217 217
232 223 229 256 261 255 220 228 252 226 221 195 195 226 244 244 225 225 234 234 239 246 242 242 240 247 218 219 235 238 234 250 261 259 249 252 251 246 241 239 238 235 231 228 223 220 220 218 217 217 223 222 201 188 185 186 192 201 205 207 208 213 206 196 191 194 192 193 193 193 192 192 192 192 199 197 196 193 193 193 198 206 207 215 218 216 216
221 212 200 222 242 245 239 234 244 252 244 216 199 226 244 252 218 205 236 249 252 249 247 243 245 241 241 239 226 251 245 245 250 257 258 253 251 252 249 243 240 236 233 229 231 226 218 220 220 225 234 226 189 184 184 185 192 200 204 206 205 207 200 197 197 197 195 196 194 193 194 196 197 198 198 194 196 204 204 203 204 205 212 208 205 208 214
216 207 204 224 239 243 247 252 253 222 232 234 225 231 243 252 236 217 237 245 254 258 253 246 222 227 237 250 228 237 248 249 247 249 251 255 258 255 251 243 240 236 234 236 235 225 214 216 224 230 240 207 186 187 184 186 193 199 200 200 200 204 203 193 193 195 197 194 193 196 197 191 188 194 195 198 198 202 206 209 210 213 214 198 176 193 209
209 197 211 224 233 240 249 256 253 239 241 241 233 225 219 234 243 234 234 248 248 250 253 259 237 224 225 240 238 232 237 242 247 253 256 258 258 255 250 244 241 241 237 239 229 216 212 214 218 227 233 203 195 188 186 188 198 199 203 205 206 203 201 201 196 202 195 195 200 200 199 200 198 198 199 199 198 198 203 206 206 205 205 204 196 198 200
185 206 218 229 238 240 234 246 257 252 246 254 252 249 200 199 230 241 244 250 252 248 252 248 240 239 236 233 239 237 236 244 251 256 259 259 259 255 248 219 218 238 235 234 224 218 219 221 223 231 229 194 195 189 187 195 191 194 200 203 208 215 213 203 200 199 197 193 187 191 197 195 196 195 197 196 197 201 206 207 205 210 210 205 198 202 201
186 215 221 231 238 238 243 246 255 255 245 249 260 258 232 206 228 236 244 248 247 247 252 249 245 243 244 244 239 240 240 243 249 252 253 256 257 254 246 230 230 239 248 246 232 211 218 223 227 233 215 190 195 189 191 198 192 188 197 199 200 198 206 204 202 203 197 190 186 188 193 189 197 194 196 197 199 200 199 200 203 204 205 205 204 203 189
201 215 225 232 237 237 243 244 239 252 254 246 246 253 249 216 228 227 236 243 249 244 238 242 248 250 251 249 242 240 244 245 248 253 255 251 250 250 243 236 232 237 243 242 237 228 222 226 233 231 193 196 194 192 198 201 199 196 193 189 193 202 202 201 204 194 198 196 195 194 191 193 197 193 201 199 198 196 199 202 203 201 205 207 210 197 179
223 225 231 223 218 227 234 246 244 244 251 246 250 255 252 223 216 220 225 237 243 241 238 242 244 248 252 248 245 244 247 254 253 250 248 247 247 249 245 236 233 234 241 243 238 235 236 236 239 223 199 198 198 196 200 202 206 207 204 188 191 188 195 190 195 200 198 200 202 201 200 199 201 201 200 197 197 197 201 198 202 201 205 210 211 196 193
347 345 5 12 7 346 331 304 286 265 254 253 247 248 249 237 220 222 213 223 237 239 236 241 248 251 248 249 248 247 240 241 248 254 258 255 253 248 247 239 233 236 245 245 234 234 233 238 232 222 205 204 201 201 199 202 204 207 205 203 202 195 187 180 186 197 200 201 186 185 198 201 207 204 201 196 197 199 206 207 205 199 204 206 207 178 187
359 356 6 12 8 3 5 355 344 338 331 315 306 305 300 266 237 229 220 223 235 249 256 246 241 246 250 247 248 247 247 245 247 249 255 257 257 256 254 243 235 241 246 259 241 230 237 235 226 217 213 208 208 209 202 201 204 207 206 204 204 197 195 193 196 200 205 200 194 200 199 204 204 198 202 206 202 198 201 203 205 208 210 206 200 181 182
356 357 357 1 358 1 357 355 348 339 336 346 355 348 338 323 300 279 260 250 246 249 256 261 254 243 244 243 243 247 249 251 250 249 252 256 259 261 256 251 236 242 249 263 258 214 225 218 224 217 214 214 214 213 208 199 198 202 204 204 204 192 190 189 189 191 200 203 202 201 207 202 199 201 202 200 199 197 196 201 208 207 204 199 185 177 180
348 353 356 354 353 349 351 346 343 338 334 338 357 12 332 322 320 319 310 288 263 247 246 247 251 253 250 248 247 250 252 251 252 255 257 261 263 267 262 249 247 226 236 241 253 244 222 212 224 216 211 215 217 217 207 200 202 200 195 193 196 194 199 195 193 197 201 198 202 197 193 194 196 195 197 198 200 195 194 199 194 197 197 196 194 188 192
351 352 353 346 350 351 348 343 345 344 345 333 326 326 323 311 307 303 300 293 286 274 263 259 256 258 256 254 255 253 250 251 254 256 259 260 261 256 259 246 240 236 246 251 237 246 233 223 220 208 205 215 216 219 205 200 199 204 204 202 204 202 202 203 203 206 204 204 200 198 194 198 191 198 197 196 194 197 207 208 206 207 199 195 187 192 193
342 349 344 341 346 354 349 342 341 336 331 329 324 322 324 324 320 315 307 305 293 279 267 267 265 266 263 251 251 255 252 249 251 253 256 258 261 264 270 260 241 239 248 250 248 251 245 234 227 217 211 217 216 215 208 194 194 203 204 199 195 198 204 205 205 205 204 199 203 203 205 206 206 207 209 202 201 206 202 195 199 206 199 191 190 195 191
337 336 336 335 340 351 346 340 331 333 339 333 330 324 324 323 321 321 319 315 315 310 293 281 275 271 269 265 258 258 259 256 252 252 253 257 259 260 259 272 236 198 228 233 238 240 241 237 226 224 223 215 219 209 210 190 193 196 204 205 206 206 208 206 207 205 203 202 202 193 197 192 202 204 203 200 199 199 196 194 197 195 194 194 195 194 195
337 336 332 334 346 345 338 328 322 345 339 329 319 321 319 315 323 329 333 334 332 327 314 296 279 276 281 278 276 272 269 263 258 255 245 244 244 256 257 267 165 221 217 224 238 241 246 244 230 224 222 212 213 205 203 191 191 195 206 207 208 206 208 209 210 212 208 206 199 187 195 199 201 192 203 201 198 188 192 193 191 195 199 197 193 193 194
331 336 336 338 341 340 338 329 334 345 332 321 321 321 316 335 343 340 337 333 329 330 328 327 318 301 290 285 278 275 272 271 267 263 260 250 242 243 248 271 254 254 237 237 241 250 247 249 234 229 212 211 215 199 199 197 183 197 203 208 210 209 209 209 212 213 211 211 204 196 196 192 194 197 203 200 197 190 195 195 197 193 194 195 197 190 192
334 333 336 338 333 330 329 324 336 344 342 331 319 313 329 339 341 341 336 332 329 327 327 329 327 320 310 300 292 289 288 283 278 275 279 281 265 236 227 249 254 255 248 251 256 253 254 250 252 224 208 211 216 204 199 198 200 197 207 210 211 211 212 211 209 210 213 213 210 204 199 201 202 198 204 197 192 195 199 195 194 193 192 191 193 195 198
333 334 332 328 330 323 325 324 344 344 331 317 321 329 337 340 338 336 334 329 325 321 328 328 321 320 325 322 314 305 301 295 291 292 289 286 292 287 174 219 239 245 249 244 253 256 258 251 243 227 214 211 215 209 205 199 196 199 208 211 214 213 215 213 211 208 213 215 215 212 207 205 205 204 207 209 205 199 196 202 204 204 196 192 189 191 196
332 331 329 323 327 335 322 321 331 337 330 329 330 328 340 341 336 332 329 327 320 319 324 316 318 323 325 320 315 310 307 299 287 266 266 276 282 291 304 292 286 273 260 253 257 260 262 255 242 232 222 218 213 209 208 210 209 201 205 209 213 216 217 218 215 212 209 212 213 212 211 207 196 198 201 192 195 202 203 205 205 203 193 193 184 190 184
329 328 324 326 327 325 324 323 341 345 339 343 343 338 334 336 335 331 321 316 314 320 317 309 318 321 322 320 316 312 320 322 320 315 297 287 285 293 309 291 283 279 276 268 259 261 262 264 249 233 230 225 216 208 204 205 205 203 206 209 212 215 217 218 217 218 213 210 210 213 214 212 206 204 207 211 208 208 207 203 204 195 192 200 202 203 204
328 323 324 330 328 322 321 329 345 347 346 340 334 324 321 326 325 319 314 310 323 323 315 311 318 318 321 320 317 321 329 328 317 314 352 337 328 316 310 309 308 301 287 271 269 266 266 265 263 251 237 229 222 209 214 211 214 208 208 210 208 204 211 215 216 215 216 213 206 206 204 199 208 203 205 201 204 209 208 206 207 202 191 189 190 188 197
320 318 324 324 324 330 330 328 348 344 340 335 331 321 327 328 320 324 324 330 334 326 322 318 316 316 315 317 321 321 317 316 310 306 319 322 313 313 308 305 301 295 286 283 275 274 266 259 253 246 242 234 217 202 215 220 220 216 218 215 212 211 215 218 217 212 210 213 210 209 209 208 202 186 202 203 206 209 207 209 208 203 203 200 203 201 201
327 330 333 332 337 337 333 336 340 340 337 335 331 328 332 326 328 325 326 332 324 323 320 317 317 315 316 314 316 315 312 311 310 312 315 314 308 310 312 311 305 299 293 289 284 279 269 262 258 252 240 228 217 229 225 227 224 224 222 222 220 220 218 220 217 212 213 211 209 210 210 208 208 206 207 209 207 208 209 209 209 208 202 200 202 201 201
335 338 333 333 331 325 326 330 340 337 334 328 332 330 327 329 319 317 325 319 320 319 315 309 305 307 308 311 312 312 312 311 315 320 317 316 314 311 313 315 311 306 300 295 289 281 279 275 268 253 240 231 230 229 228 228 228 227 225 224 221 221 221 217 216 216 215 212 211 210 208 207 206 204 206 209 207 206 208 207 207 204 201 205 206 205 204
317 323 323 319 318 320 319 330 338 334 331 333 332 329 333 324 322 318 313 317 318 315 311 310 307 303 308 310 313 316 315 317 320 322 319 315 311 312 315 314 317 314 311 308 302 294 286 281 274 260 253 252 245 233 235 228 229 233 231 227 227 225 224 220 218 219 218 212 213 212 209 206 203 204 208 207 206 206 206 207 207 206 206 208 209 206 205